STARLINK-30775, 58139

Orbit data source: Space-Track

STARLINK-30775, 58139 is a payload satellite owned by SpaceX/Seattle (US) in LEO that was launched on Sun, 22 Oct 2023 UTC via an FALCON 9 launch vehicle from the Air Force Eastern Test Range (AFETR). Payload-class satellites include a variety of spacecraft equipped with specific instruments for various scientific and technological missions. These include communications satellites like Starlink; space stations such as the ISS; scientific satellites like the Hubble; Earth observation satellites from companies like Planet Labs, Umbra, and HawkEye 360; GPS; miniature CubeSats for education and research; and military/defense satellites.

Loading next visibility...
Identifier
58139, 2023-162X
Orbit
LEO
Country
Flag of USUS
Related business
Manufacturer
SpaceX/Seattle
Mission
Operational Commercial Communications
Bus & Motor
STARLINK V2M, Unknown motor
Mass
730 kg wet, ~700 kg dry
Launch date (UTC)
2023-10-22 (2 years ago)
Launch vehicle
FALCON 9
Launch site
Air Force Eastern Test Range (AFETR)
Object type
Payload
Rocket body
Debris
Shape & HBR
Box + 2 Pan, 17.7 m
Radar Cross Section
33.884 m², Large (>1 m²)

Expand to show TLE details & history
Last TLE update: 1 day ago

TLE from 1 day ago
0 STARLINK-30775
1 58139U 23162X   25348.38747310  .00000109  00000-0  23128-4 0  9995
2 58139  43.0023 236.9893 0000820 269.9069  90.1679 15.02529676119467
Epoch: 2025-12-14T09:17Z
TLE epoch observation values (Epoch: 2025-12-14T09:17:57.675Z)
Latitude
-0.00006°
Longitude
14.19781°
Altitude
558.879 km
Speed
7.584 km/s
True Right ascension
15h 47m 57s
True Declination
0° 00' 00"
Sunlit
Object was in daylight at epoch
Visualization orbit readout
Latitude
Unknown
Longitude
Unknown
Altitude
Unknown
Speed
Unknown
Apparent Right ascension
Unknown
Apparent Declination
Unknown
Sunlit
N/A
Visualization observer readout
Local Sidereal Time
15:08:15
Azimuth
Unknown
Elevation
Unknown
Doppler factor
Unknown
Orbital elements
Apogee altitude
561.592 km
Perigee altitude
560.454 km
Semi-major axis
6,939.16 km
Eccentricity
0.00008
Inclination
43.0023°
RAAN
236.9893°
Arg. of periapsis
269.9069°
True anomaly
90.1773°
Mean anomaly
90.1679°
Eccentric anomaly
90.1726°
Mean motion
3.75477 °/min
Orbital period
95.88 mins
BSTAR
0.000023128
Loading maneuver chart data...
Computing Atmospheric mass density...
Loading historical data...
Loading historical data...
Loading historical data...
Loading historical data...
Loading historical data...
Loading historical data...
Loading historical data...

Documentation

Showing up to 5 results
|